Location: Campillo
(40.8621°N, 4.2488°W)
Time: 12:03:55
(UTC+00:00)

Resurs 01 Rocket - Visible Passes

Search period start: 24 September 2021 00:00
Search period end: 04 October 2021 00:00
Orbit: 633 x 645 km, 97.9° (Epoch: 24 September)

Date Brightness Start Highest point End Pass type
(mag) Time Alt. Az. Time Alt. Az. Time Alt. Az.
24 Sep 3.8 19:33:41 11° NE 19:33:41 11° NE 19:34:12 10° NE visible
24 Sep 3.8 21:11:15 22° NNW 21:11:15 22° NNW 21:12:51 10° NNW visible
25 Sep 3.6 19:57:14 16° NE 19:57:14 16° NE 19:58:38 10° NNE visible
25 Sep 4.4 21:34:48 16° NW 21:34:48 16° NW 21:35:46 10° NNW visible
26 Sep 3.5 20:20:48 20° NNE 20:20:48 20° NNE 20:22:21 10° N visible
27 Sep 3.7 20:44:20 20° N 20:44:20 20° N 20:45:47 10° N visible
28 Sep 4.1 21:07:54 17° NNW 21:07:54 17° NNW 21:08:58 10° NNW visible
29 Sep 3.8 19:53:53 13° NNE 19:53:53 13° NNE 19:54:36 10° NNE visible
29 Sep 4.6 21:31:28 13° NNW 21:31:28 13° NNW 21:31:56 10° NNW visible
30 Sep 3.8 20:17:26 15° NNE 20:17:26 15° NNE 20:18:24 10° N visible
01 Oct 4.0 20:41:00 15° N 20:41:00 15° N 20:41:51 10° N visible
02 Oct 4.3 21:04:33 13° NNW 21:04:33 13° NNW 21:05:04 10° NNW visible
03 Oct 4.1 19:50:32 10° NNE 19:50:32 10° NNE 19:50:33 10° NNE visible
